Regional Weather Roundup
Issued by NWS

Home | Current Version | Previous Version | Graphics & Text | Print | Product List | Glossary On
Versions: 1 2 3 4 5 6 7 8 9 10 11 12 13 14 15 16 17 18 19 20 21 22 23 24 25 26 27 28 29 30 31 32 33 34 35 36 37 38 39 40 41 42 43 44 45 46 47 48 49 50
000
ASUS43 KLMK 252002
RWRKY
KENTUCKY REGIONAL WEATHER ROUNDUP
NATIONAL WEATHER SERVICE LOUISVILLE KY
400 PM EDT SAT OCT 25 2014

NOTE "FAIR" INDICATES FEW OR NO CLOUDS BELOW 12,000 FEET
WITH NO SIGNIFICANT WEATHER AND/OR OBSTRUCTIONS TO VISIBILITY.

KYZ001>023-026-027-061>063-070>075-252100-
WESTERN AND SOUTH CENTRAL KENTUCKY

CITY           SKY/WX    TMP DP  RH WIND       PRES   REMARKS
PADUCAH        SUNNY     79  63  57 NW5       29.99F
HENDERSON      SUNNY    N/A N/A N/A SW7       29.97S
OWENSBORO      SUNNY     78  60  53 W9        29.98F
HOPKINSVILLE   MOSUNNY   77  64  62 W9        30.00R HAZE
BOWLING GREEN  MOSUNNY   77  60  55 VRB6      29.99S
GLASGOW        MOSUNNY   74  59  58 SW3       30.00R
$$

KYZ024-025-028>034-038-045-046-053-252100-
NORTH CENTRAL KENTUCKY

CITY           SKY/WX    TMP DP  RH WIND       PRES   REMARKS
LOUISVILLE/SDF MOSUNNY   76  59  55 W17       29.95F
LOUISVILLE/LOU SUNNY     74  60  61 SW9       29.96F
FORT KNOX      SUNNY     75  60  58 W10       29.95F
$$

KYZ035>037-039>044-047>052-055>060-089>105-252100-
NORTHEAST KENTUCKY

CITY           SKY/WX    TMP DP  RH WIND       PRES   REMARKS
LEXINGTON      PTSUNNY   73  58  59 W8        29.96F
COVINGTON      MOSUNNY   74  55  51 W12       29.92F
FRANKFORT      SUNNY     72  59  63 W9        29.95F
$$

KYZ054-064>069-076>088-106>120-252100-
SOUTHEAST KENTUCKY

CITY           SKY/WX    TMP DP  RH WIND       PRES   REMARKS
JACKSON        MOSUNNY   69  51  52 VRB6      29.99F
LONDON         MOSUNNY   69  52  54 VRB7      30.00F
SOMERSET       MOSUNNY   68  54  60 W6        30.01F
MIDDLESBORO    CLOUDY    68  49  51 CALM      30.02S
MONTICELLO     PTCLDY    71  56  59 SW8       30.01F
$$




USA.gov is the U.S. government's official web portal to all federal, state and local government web resources and services.